North Platte, NE

3:45 AM CDT on August 19, 2017 (GMT -0500)
North Platte Regional-Bird

Weather History for KLBF - January, 2014

Change the Weather History Date:

Thursday, January 30, 2014

  Actual Average Record
Temperature  
Mean Temperature 33 °F 26 °F  
Max Temperature 44 °F 40 °F 68 °F (2012)
Min Temperature 21 °F 12 °F -20 °F (1918)
Degree Days  
Heating Degree Days 32 39  
Month to date heating degree days 1149 1200  
Since 1 July heating degree days 3901 3980  
Cooling Degree Days 0 0  
Month to date cooling degree days 0 0  
Year to date cooling degree days 0 0  
Moisture  
Dew Point 19 °F    
Average Humidity 56    
Maximum Humidity 84    
Minimum Humidity 28    
Precipitation  
Precipitation 0.05 in 0.01 in 1.03 in (1879)
Month to date precipitation 0.12 0.33  
Year to date precipitation 0.12 0.33  
Snow  
Snow 0.60 in 0.10 in 2.00 in (1971)
Month to date snowfall 1.4 4.6  
Since 1 July snowfall 8.1 15.4  
Snow Depth 0.00 in    
Sea Level Pressure  
Sea Level Pressure 29.76 in    
Wind  
Wind Speed 10 mph (North)    
Max Wind Speed 26 mph    
Max Gust Speed 36 mph    
Visibility 8 miles    
Events Snow    
T = Trace of Precipitation, MM = Missing Value Source: NWS Daily Summary

Daily Weather History Graph

Daily Weather History Graph

Search for Another Location

Airport or City:

Trip Planner

Search our weather history database for the weather conditions in past years. The results will help you decide how hot, cold, wet, or windy it might be!

Date:

Astronomy

Jan. 30, 2014 Rise Set
Actual Time 7:55 AM CST 5:57 PM CST
Civil Twilight 7:26 AM CST 6:26 PM CST
Nautical Twilight 6:53 AM CST 6:59 PM CST
Astronomical Twilight 6:20 AM CST 7:31 PM CST
Moon 7:22 AM CST (1/30) 6:11 PM CST (1/30)
Length of Visible Light 11h 00m
Length of Day
10h 01m
Waning Crescent, 0% of the Moon is Illuminated
Jan 30
Waning Crescent
Jan 30
New
Feb 6
First Quarter
Feb 14
Full
Feb 22
Last Quarter

Hourly Weather History & Observations

Time (CST) Temp. Windchill Dew Point Humidity Pressure Visibility Wind Dir Wind Speed Gust Speed Precip Events Conditions
12:53 AM 43.0 °F 40.3 °F 15.1 °F 32% 29.39 in 10.0 mi WSW 4.6 mph - N/A   Mostly Cloudy
1:53 AM 39.0 °F 35.7 °F 17.1 °F 41% 29.38 in 10.0 mi WSW 4.6 mph - N/A   Mostly Cloudy
2:53 AM 37.9 °F 35.5 °F 17.1 °F 43% 29.38 in 10.0 mi West 3.5 mph - N/A   Mostly Cloudy
3:53 AM 37.0 °F 33.3 °F 19.0 °F 48% 29.42 in 10.0 mi NNW 4.6 mph - N/A   Overcast
4:31 AM 42.8 °F 35.4 °F 32.0 °F 66% 29.42 in 10.0 mi NW 15.0 mph 18.4 mph N/A   Mostly Cloudy
4:43 AM 42.8 °F 35.8 °F 33.8 °F 70% 29.44 in 10.0 mi NW 13.8 mph - N/A   Scattered Clouds
4:53 AM 42.1 °F 34.9 °F 34.0 °F 73% 29.45 in 10.0 mi NW 13.8 mph - N/A   Partly Cloudy
5:53 AM 41.0 °F 32.5 °F 32.0 °F 70% 29.50 in 10.0 mi WNW 17.3 mph 24.2 mph N/A   Clear
6:53 AM 41.0 °F 33.9 °F 30.9 °F 67% 29.56 in 10.0 mi NW 12.7 mph - N/A   Scattered Clouds
7:03 AM 41.0 °F 33.5 °F 30.2 °F 65% 29.55 in 10.0 mi NW 13.8 mph - N/A   Mostly Cloudy
7:53 AM 34.0 °F 21.0 °F 24.1 °F 67% 29.64 in 10.0 mi North 26.5 mph 35.7 mph N/A   Overcast
8:13 AM 30.2 °F 16.8 °F 21.2 °F 69% 29.65 in 10.0 mi North 23.0 mph 32.2 mph N/A   Overcast
8:53 AM 28.0 °F 16.5 °F 19.9 °F 72% 29.74 in 10.0 mi North 15.0 mph - N/A   Mostly Cloudy
9:51 AM 26.6 °F 16.2 °F 19.4 °F 74% 29.73 in 10.0 mi North 11.5 mph - N/A   Scattered Clouds
9:53 AM 27.0 °F 15.6 °F 19.0 °F 72% 29.78 in 10.0 mi NNW 13.8 mph - N/A   Partly Cloudy
10:53 AM 27.0 °F 12.5 °F 17.1 °F 66% 29.81 in 10.0 mi NNW 23.0 mph 27.6 mph N/A   Partly Cloudy
11:10 AM 26.6 °F 13.8 °F 17.6 °F 69% 29.77 in 10.0 mi North 17.3 mph - N/A   Mostly Cloudy
11:53 AM 28.9 °F 18.2 °F 17.1 °F 61% 29.82 in 10.0 mi North 13.8 mph - N/A   Mostly Cloudy
12:31 PM 28.4 °F 16.6 °F 17.6 °F 64% 29.78 in 10.0 mi North 16.1 mph - N/A   Partly Cloudy
12:53 PM 28.9 °F 17.7 °F 16.0 °F 58% 29.83 in 10.0 mi North 15.0 mph - N/A   Partly Cloudy
1:53 PM 28.9 °F 19.2 °F 15.1 °F 56% 29.85 in 10.0 mi North 11.5 mph - N/A   Scattered Clouds
2:28 PM 28.4 °F 18.5 °F 15.8 °F 59% 29.79 in 10.0 mi NNE 11.5 mph - N/A   Mostly Cloudy
2:40 PM 28.4 °F 19.7 °F 15.8 °F 59% 29.79 in 10.0 mi NE 9.2 mph - N/A   Partly Cloudy
2:53 PM 28.9 °F 19.8 °F 15.1 °F 56% 29.86 in 10.0 mi North 10.4 mph - N/A   Scattered Clouds
3:10 PM 28.4 °F 19.1 °F 15.8 °F 59% 29.81 in 10.0 mi NNE 10.4 mph - N/A   Mostly Cloudy
3:49 PM 28.4 °F 20.4 °F 15.8 °F 59% 29.81 in 10.0 mi NNE 8.1 mph - N/A   Mostly Cloudy
3:53 PM 28.0 °F 20.8 °F 15.1 °F 58% 29.87 in 10.0 mi NNE 6.9 mph - N/A   Mostly Cloudy
4:53 PM 27.0 °F 18.7 °F 12.9 °F 56% 29.89 in 10.0 mi NNE 8.1 mph - N/A   Overcast
5:53 PM 27.0 °F 20.5 °F 12.9 °F 56% 29.94 in 10.0 mi NE 5.8 mph - N/A   Overcast
6:53 PM 26.1 °F 19.4 °F 12.9 °F 58% 29.97 in 10.0 mi ENE 5.8 mph - N/A   Overcast
7:53 PM 26.1 °F 19.4 °F 12.9 °F 58% 29.99 in 10.0 mi ENE 5.8 mph - N/A   Overcast
8:53 PM 26.1 °F 16.8 °F 12.0 °F 55% 30.01 in 10.0 mi NE 9.2 mph - N/A   Overcast
9:46 PM 23.0 °F 14.7 °F 15.8 °F 74% 29.94 in 3.0 mi East 6.9 mph - 0.00 in Snow Light Snow
9:53 PM 23.0 °F 14.7 °F 16.0 °F 74% 30.04 in 2.0 mi East 6.9 mph - 0.00 in Snow Light Snow
10:02 PM 21.2 °F 12.6 °F 17.6 °F 86% 29.94 in 1.5 mi ENE 6.9 mph - 0.00 in Snow Light Snow
10:10 PM 21.2 °F 11.7 °F 17.6 °F 86% 29.94 in 1.2 mi ENE 8.1 mph - 0.01 in Snow Light Snow
10:53 PM 21.9 °F 14.5 °F 18.0 °F 85% 30.03 in 1.5 mi ENE 5.8 mph - 0.03 in Snow Light Snow
11:20 PM 21.2 °F 11.7 °F 17.6 °F 86% 29.93 in 2.0 mi ENE 8.1 mph - 0.01 in Snow Light Snow
11:37 PM 21.2 °F 10.9 °F 17.6 °F 86% 29.93 in 1.8 mi ENE 9.2 mph - 0.01 in Snow Light Snow
11:53 PM 21.0 °F 12.4 °F 17.1 °F 85% 30.02 in 1.8 mi ENE 6.9 mph - 0.01 in Snow Light Snow